TimePST,TemperatureF,Dew PointF,Humidity,Sea Level PressureIn,VisibilityMPH,Wind Direction,Wind SpeedMPH,Gust SpeedMPH,PrecipitationIn,Events,Conditions,WindDirDegrees,DateUTC
12:54 AM,43.0,37.0,80,29.94,8.0,SSW,15.0,21.9,0.03,Rain,Light Rain,210,2013-02-25 08:54:00
1:54 AM,41.0,37.9,89,29.94,4.0,SSW,18.4,26.5,0.11,Rain,Rain,200,2013-02-25 09:54:00
2:34 AM,41.0,39.0,93,29.95,8.0,SSW,9.2,20.7,0.01,,Overcast,210,2013-02-25 10:34:00
2:54 AM,41.0,39.0,93,29.96,7.0,SSW,11.5,-,0.01,Rain,Light Rain,200,2013-02-25 10:54:00
3:47 AM,41.0,39.0,93,29.97,8.0,SSW,9.2,-,0.02,Rain,Light Rain,200,2013-02-25 11:47:00
3:54 AM,41.0,39.0,93,29.98,10.0,SSW,12.7,-,0.02,Rain,Light Rain,210,2013-02-25 11:54:00
4:01 AM,41.0,39.0,93,29.98,10.0,SSW,12.7,-,0.00,Rain,Light Rain,210,2013-02-25 12:01:00
4:10 AM,41.0,39.0,93,29.98,10.0,SSW,10.4,-,0.00,,Overcast,210,2013-02-25 12:10:00
4:54 AM,41.0,39.0,93,30.01,9.0,SSW,9.2,-,0.02,Rain,Light Rain,210,2013-02-25 12:54:00
5:06 AM,41.0,37.9,89,30.01,7.0,SSW,12.7,21.9,0.00,Rain,Light Rain,210,2013-02-25 13:06:00
5:16 AM,41.0,37.9,89,30.01,10.0,SSW,16.1,-,0.00,Rain,Light Rain,210,2013-02-25 13:16:00
5:54 AM,39.9,37.9,93,30.03,9.0,SSW,11.5,-,0.01,Rain,Light Rain,210,2013-02-25 13:54:00
6:11 AM,39.9,37.0,89,30.04,10.0,SSW,11.5,-,0.00,Rain,Light Rain,210,2013-02-25 14:11:00
6:22 AM,39.9,37.0,89,30.04,10.0,SSW,10.4,-,0.01,Rain,Light Rain,210,2013-02-25 14:22:00
6:54 AM,39.9,37.0,89,30.04,4.0,SW,12.7,-,0.05,Rain,Rain,220,2013-02-25 14:54:00
7:14 AM,39.0,37.0,93,30.04,7.0,SW,12.7,-,0.02,Rain,Light Rain,220,2013-02-25 15:14:00
7:44 AM,39.9,37.0,89,30.05,9.0,SW,13.8,-,0.03,Rain,Light Rain,220,2013-02-25 15:44:00
7:54 AM,39.9,37.0,89,30.07,8.0,SW,12.7,-,0.03,Rain,Light Rain,220,2013-02-25 15:54:00
8:54 AM,39.9,37.0,89,30.09,3.0,SW,10.4,-,0.04,Rain,Light Rain,230,2013-02-25 16:54:00
9:54 AM,43.0,39.0,86,30.11,6.0,West,15.0,25.3,0.03,Rain,Light Rain,260,2013-02-25 17:54:00
10:54 AM,45.0,37.9,76,30.14,8.0,West,15.0,23.0,0.00,Rain,Light Rain,260,2013-02-25 18:54:00
11:54 AM,46.0,36.0,68,30.16,9.0,WSW,11.5,27.6,0.00,,Scattered Clouds,250,2013-02-25 19:54:00
12:54 PM,48.0,35.1,61,30.17,10.0,WSW,16.1,-,N/A,,Mostly Cloudy,240,2013-02-25 20:54:00
1:54 PM,46.9,30.9,54,30.18,10.0,SW,17.3,24.2,N/A,,Mostly Cloudy,230,2013-02-25 21:54:00
2:54 PM,43.0,37.0,80,30.20,10.0,SW,5.8,-,0.02,Rain,Light Rain,220,2013-02-25 22:54:00
3:54 PM,45.0,35.1,68,30.21,10.0,WSW,11.5,-,0.00,,Mostly Cloudy,240,2013-02-25 23:54:00
4:54 PM,44.1,33.1,65,30.22,10.0,West,12.7,19.6,N/A,,Partly Cloudy,260,2013-02-26 00:54:00
5:54 PM,42.1,34.0,73,30.23,10.0,WSW,8.1,-,N/A,,Scattered Clouds,240,2013-02-26 01:54:00
6:54 PM,42.1,33.1,70,30.26,10.0,SW,6.9,-,N/A,,Mostly Cloudy,220,2013-02-26 02:54:00
7:54 PM,39.0,34.0,82,30.28,10.0,SW,5.8,-,N/A,,Clear,220,2013-02-26 03:54:00
8:54 PM,39.9,34.0,79,30.30,10.0,SW,9.2,-,N/A,,Scattered Clouds,220,2013-02-26 04:54:00
9:54 PM,39.0,34.0,82,30.31,10.0,SSW,11.5,-,N/A,,Clear,210,2013-02-26 05:54:00
10:54 PM,37.9,34.0,86,30.32,10.0,SSW,11.5,-,N/A,,Clear,210,2013-02-26 06:54:00
11:54 PM,39.0,34.0,82,30.32,10.0,SW,10.4,-,N/A,,Clear,230,2013-02-26 07:54:00